Location: Baia Mare
(47.6567°N, 23.5850°E)
Time: 16:43:38
(UTC+03:00)

ISS - Pass Details

Date: 04 July 2018
Orbit: 402 x 406 km, 51.6° (Epoch: 18 June)

Event Time Altitude Azimuth Distance (km) Brightness Sun altitude
Exits shadow 04:17:23 - 174° (S) 1,622 -1.2 -10.1°
Reaches altitude 10° 04:18:06 10° 164° (SSE) 1,455 -1.4 -10.0°
Maximum altitude 04:19:42 13° 135° (SE) 1,289 -1.3 -9.8°
Drops below altitude 10° 04:21:18 10° 105° (ESE) 1,461 -0.7 -9.7°
Sets 04:24:13 0° 77° (ENE) 2,326 1.0 -9.3°
